Orbital Elements at Epoch 2459200.5 (2020-Dec-17.0) TDB
Reference: JPL 28 (heliocentric ecliptic J2000)
Element | Value | Uncertainty (1-sigma) | Units |
e | .2166098816122243 | 3.0412e-08 | |
a | 2.343749931233672 | 6.4235e-09 | au |
q | 1.836070536100487 | 7.0298e-08 | au |
i | 2.899203797001126 | 3.5635e-06 | deg |
node | 246.7031637499842 | 8.4097e-05 | deg |
peri | 177.6971314101657 | 8.4806e-05 | deg |
M | 34.94767211878852 | 1.0421e-05 | deg |
tp | 2459073.272472570336 (2020-Aug-11.77247257) | 3.7796e-05 | TDB |
period | 1310.58542952436 3.59 | 5.3878e-06 1.475e-08 | d yr |
n | .2746864049378695 | 1.1292e-09 | deg/d |
Q | 2.851429326366856 | 7.8149e-09 | au |
|
| | Orbit Determination Parameters
Additional Information
|